[Date Prev][Date Next][Thread Prev][Thread Next] - [Date Index][Thread Index][Author Index]
2 Line ISS Keps 2-25
- Subject: [sarex] 2 Line ISS Keps 2-25
- From: "Dave Larsen PhD" <doc@xxxxxxxxxxx>
- Date: Wed, 25 Feb 2004 00:55:57 -0800
ISS
1 25544U 98067A 04056.16158986 .00017000 00000-0 15848-3 0 2618
2 25544 51.6289 181.2389 0006176 204.4287 219.0678 15.67452248300585
----
Via the sarex mailing list at AMSAT.ORG courtesy of AMSAT-NA.
To unsubscribe, send "unsubscribe sarex" to Majordomo@amsat.org
AMSAT Home